[[{"header":{"parameterUnit":"m.s-1","parameterCategory":1,"la1":30.2991,"la2":30.254,"lo1":-89.0895,"lo2":-89.0444,"dy":0.0017,"dx":0.0017,"nx":28,"ny":28,"refTime":"2024-06-04T03:00:00:Z","depth":0,"parameterNumber":2,"parameterNumberName":"U-component_of_WINDS"},"data":[0,0,0,0,0,0,0,0,0,0,0,0,0,0,0,0,0,0,0,0,0,0,0,0,0,0,0,0,0,0,0,0,0,0,0,0,0,0,0,0,0,0,0,0,0,0,0,0,0,0,0,0,0,0,0,0,0,0,-0.8601,-0.8601,0,-0.857,-0.857,-0.857,-0.8538,-0.8538,-0.8538,-0.8537,-0.8506,-0.8506,-0.8506,0,0,0,0,0,0,0,0,0,0,0,0,0,-0.8635,-0.8635,-0.8601,-0.8601,-0.8601,-0.857,-0.857,-0.857,-0.8539,-0.8538,-0.8537,-0.8537,-0.8507,-0.8506,-0.8505,0,0,0,0,0,0,0,0,0,0,0,0,0,-0.8614,-0.8635,-0.8602,-0.8581,-0.8579,-0.8571,-0.857,-0.857,-0.8539,-0.8538,-0.8537,-0.8537,-0.8507,-0.8506,-0.8505,-0.8514,0,0,-0.8503,-0.8503,0,0,0,0,0,0,0,0,-0.8615,-0.8613,-0.8585,-0.8583,-0.858,-0.8558,-0.8571,-0.8551,-0.8539,-0.8554,-0.8537,-0.8536,-0.8524,-0.8522,-0.8517,-0.8513,-0.8511,-0.8503,-0.8503,-0.8503,-0.8503,0,0,0,0,0,0,0,-0.8617,-0.8614,-0.8589,-0.8584,-0.8582,-0.8575,-0.8571,-0.8567,-0.8543,-0.8553,-0.855,-0.8547,-0.8523,-0.8518,-0.8517,-0.8511,-0.8503,-0.8503,-0.8502,-0.8502,-0.8513,-0.8514,0,0,0,0,0,0,-0.8621,-0.8616,-0.859,-0.8588,-0.8597,-0.8574,-0.857,-0.8566,-0.8543,-0.8539,-0.8548,-0.8546,-0.852,-0.8517,-0.8515,-0.8525,-0.8503,-0.8502,-0.8502,-0.8512,-0.8513,-0.8514,0,0,0,0,0,0,-0.8622,-0.8619,-0.8591,-0.8601,-0.8597,-0.8575,-0.857,-0.8565,-0.8561,-0.8539,-0.8535,-0.8547,-0.8519,-0.8516,-0.8515,-0.8523,-0.8502,-0.8501,-0.8512,-0.8513,-0.8514,-0.8544,0,0,0,0,0,0,-0.8623,-0.862,-0.8622,-0.8602,-0.8597,-0.8591,-0.857,-0.8565,-0.856,-0.8557,-0.8538,-0.8534,-0.8518,-0.8516,-0.8514,-0.8522,-0.8501,-0.8511,-0.8512,-0.8513,-0.8542,-0.8546,-0.8549,0,0,0,0,0,-0.8624,-0.8632,-0.8623,-0.862,-0.86,-0.8592,-0.8589,-0.8571,-0.856,-0.8563,-0.855,-0.8535,-0.8523,-0.8516,-0.8514,-0.8522,-0.851,-0.8512,-0.8513,-0.854,-0.8545,-0.8549,0,0,0,0,0,0,-0.8655,-0.8629,-0.8618,-0.8619,-0.8608,-0.8586,-0.8589,-0.8576,-0.8567,-0.8565,-0.8543,-0.8539,-0.854,-0.8531,-0.8524,-0.853,-0.8514,-0.8515,-0.8536,-0.854,-0.8543,-0.8546,-0.85,0,0,0,0,0,-0.8661,-0.8657,-0.8635,-0.8638,-0.8632,-0.8612,-0.8608,-0.8595,-0.8582,-0.8577,-0.8563,-0.8552,-0.8546,-0.8542,-0.8535,-0.854,-0.8536,-0.8545,-0.8548,-0.8551,-0.8552,-0.8555,-0.8559,-0.8519,-0.8519,-0.8519,0,0,-0.8675,-0.8661,-0.8659,-0.8643,-0.8633,-0.8629,-0.8608,-0.8605,-0.8602,-0.8577,-0.8575,-0.8564,-0.855,-0.8553,-0.8553,-0.8545,-0.8563,-0.8553,-0.8555,-0.8555,-0.8557,-0.8561,-0.8565,-0.852,-0.852,-0.852,0,0,-0.8699,-0.8687,-0.8689,-0.8679,-0.8663,-0.865,-0.865,-0.8631,-0.8623,-0.8621,-0.8602,-0.8599,-0.8588,-0.8579,-0.8574,-0.8595,-0.8581,-0.8593,-0.8612,-0.8615,-0.8618,-0.8621,-0.8629,-0.8632,-0.8595,-0.8595,-0.8595,0,-0.8718,-0.8711,-0.8691,-0.8689,-0.8684,-0.866,-0.8663,-0.8654,-0.8637,-0.8634,-0.8625,-0.8612,-0.8601,-0.8601,-0.8607,-0.8602,-0.8603,-0.8595,-0.8619,-0.8621,-0.8624,-0.8632,-0.8635,-0.8596,-0.8596,-0.8596,-0.8596,0,-0.8737,-0.8732,-0.8736,-0.872,-0.8714,-0.8715,-0.8695,-0.8692,-0.868,-0.8667,-0.8666,-0.8652,-0.8642,-0.8641,-0.8629,-0.864,-0.8635,-0.8623,-0.8607,-0.863,-0.8637,-0.8639,-0.8599,-0.8598,-0.8598,-0.8597,0,0,-0.8778,-0.8752,-0.8754,-0.8747,-0.8728,-0.8725,-0.8725,-0.8715,-0.8713,-0.8702,-0.8702,-0.8694,-0.8683,-0.8676,-0.8663,-0.8666,-0.8685,-0.8653,-0.8652,-0.866,-0.8697,-0.8707,-0.8711,-0.8675,-0.8676,-0.8676,-0.8698,0,-0.8799,-0.8797,-0.8779,-0.8782,-0.8778,-0.8756,-0.8756,-0.8745,-0.8734,-0.873,-0.8717,-0.8712,-0.8697,-0.8693,-0.8695,-0.8682,-0.8692,-0.868,-0.8675,-0.8675,-0.868,-0.8714,-0.8724,-0.8746,-0.8701,-0.8701,-0.8702,0,-0.8823,-0.8815,-0.8817,-0.88,-0.8797,-0.8797,-0.8788,-0.8783,-0.8771,-0.8763,-0.8756,-0.8741,-0.874,-0.8725,-0.8724,-0.8716,-0.8713,-0.8707,-0.8707,-0.8706,-0.869,-0.8715,-0.8752,-0.8756,-0.8706,-0.8705,-0.8705,0,-0.8855,-0.8843,-0.8844,-0.8838,-0.8818,-0.8818,-0.881,-0.8797,-0.8792,-0.8784,-0.8781,-0.8773,-0.8768,-0.8762,-0.8746,-0.8736,-0.8747,-0.873,-0.8741,-0.8741,-0.8744,-0.8744,-0.8783,-0.8741,-0.8741,-0.8741,-0.8741,0,-0.8881,-0.8883,-0.8858,-0.8858,-0.886,-0.884,-0.8843,-0.8833,-0.8822,-0.882,-0.8801,-0.8799,-0.8777,-0.8774,-0.8761,-0.8763,-0.8761,-0.8754,-0.8751,-0.8756,-0.8757,-0.8755,-0.8753,-0.8742,-0.8742,-0.8742,-0.8742,0,-0.8916,-0.8899,-0.8898,-0.8879,-0.8874,-0.8877,-0.886,-0.886,-0.8848,-0.8846,-0.8844,-0.8825,-0.882,-0.8803,-0.8794,-0.8785,-0.8791,-0.8784,-0.8795,-0.8793,-0.8805,-0.8804,-0.8843,-0.8847,-0.8803,-0.8803,-0.8804,0,-0.8934,-0.8936,-0.8917,-0.8914,-0.8907,-0.8902,-0.8898,-0.8878,-0.8875,-0.8861,-0.8863,-0.8856,-0.885,-0.8843,-0.8829,-0.8822,-0.8815,-0.8829,-0.8814,-0.882,-0.8816,-0.8817,-0.8817,-0.8833,-0.8833,-0.8834,-0.8834,0,-0.8969,-0.896,-0.8954,-0.8946,-0.8941,-0.8933,-0.8924,-0.8923,-0.8902,-0.8899,-0.8893,-0.8889,-0.8879,-0.8873,-0.8864,-0.8856,-0.8842,-0.8839,-0.8841,-0.8847,-0.8854,-0.8851,-0.8805,-0.8838,-0.8838,-0.8838,-0.8837,-0.8837,-0.8996,-0.8997,-0.8984,-0.8978,-0.897,-0.8962,-0.8961,-0.8949,-0.8944,-0.8935,-0.8924,-0.892,-0.8908,-0.8895,-0.8887,-0.8885,-0.8877,-0.888,-0.8881,-0.8882,-0.8885,-0.8854,-0.8883,-0.8883,-0.8883,-0.8882,-0.8882,0,-0.903,-0.9021,-0.9016,-0.9004,-0.9,-0.8987,-0.8977,-0.8974,-0.8971,-0.8961,-0.8956,-0.895,-0.8944,-0.893,-0.8923,-0.8923,-0.8917,-0.8922,-0.8922,-0.8921,-0.8892,-0.8891,-0.8928,-0.8928,-0.8928,-0.8928,-0.8928,-0.8928,-0.9048,-0.9049,-0.9039,-0.9035,-0.9026,-0.9022,-0.9017,-0.9011,-0.9003,-0.8997,-0.8992,-0.8983,-0.8971,-0.8963,-0.8958,-0.8954,-0.8952,-0.896,-0.8954,-0.8927,-0.8923,-0.8919,-0.8918,-0.896,-0.896,-0.8983,-0.8984,-0.8984]},{"header":{"parameterUnit":"m.s-1","parameterCategory":1,"la1":30.2991,"la2":30.254,"lo1":-89.0895,"lo2":-89.0444,"dy":0.0017,"dx":0.0017,"nx":28,"ny":28,"refTime":"2024-06-04T03:00:00:Z","depth":0,"parameterNumber":3,"parameterNumberName":"V-component_of_WINDS"},"data":[0,0,0,0,0,0,0,0,0,0,0,0,0,0,0,0,0,0,0,0,0,0,0,0,0,0,0,0,0,0,0,0,0,0,0,0,0,0,0,0,0,0,0,0,0,0,0,0,0,0,0,0,0,0,0,0,0,0,5.7239,5.7239,0,5.722,5.722,5.722,5.7106,5.7103,5.7101,5.7098,5.7079,5.7081,5.7083,0,0,0,0,0,0,0,0,0,0,0,0,0,5.7178,5.718,5.7239,5.7239,5.7239,5.722,5.722,5.722,5.7107,5.7103,5.71,5.7097,5.7078,5.7081,5.7083,0,0,0,0,0,0,0,0,0,0,0,0,0,5.7187,5.718,5.7239,5.718,5.7175,5.722,5.722,5.7219,5.7107,5.7103,5.7099,5.7095,5.7078,5.7081,5.7084,5.7185,0,0,5.7093,5.7094,0,0,0,0,0,0,0,0,5.7186,5.7189,5.7189,5.7184,5.7178,5.7161,5.7191,5.7208,5.7108,5.7133,5.7098,5.7093,5.711,5.711,5.7115,5.7184,5.7183,5.7093,5.7095,5.7096,5.7097,0,0,0,0,0,0,0,5.7186,5.7189,5.7231,5.7189,5.7183,5.7155,5.7151,5.7194,5.7145,5.713,5.7122,5.7121,5.7106,5.7113,5.7114,5.7183,5.7093,5.7096,5.7098,5.7099,5.7333,5.7337,0,0,0,0,0,0,5.7193,5.7189,5.7232,5.7231,5.7172,5.7159,5.7155,5.7171,5.7144,5.7136,5.7125,5.7116,5.7109,5.7111,5.7113,5.7229,5.7096,5.7099,5.7101,5.7329,5.7334,5.7339,0,0,0,0,0,0,5.7193,5.7198,5.7233,5.7208,5.721,5.7164,5.7183,5.7173,5.7179,5.714,5.713,5.7141,5.7106,5.7109,5.7168,5.7227,5.7101,5.7103,5.7323,5.733,5.7336,5.7462,0,0,0,0,0,0,5.7191,5.7199,5.7236,5.721,5.7212,5.7288,5.7186,5.7175,5.7185,5.7173,5.7152,5.7145,5.7103,5.7164,5.7171,5.7229,5.7106,5.7318,5.7326,5.7334,5.7453,5.7472,5.7489,0,0,0,0,0,5.7189,5.7273,5.7239,5.7245,5.7258,5.7292,5.7293,5.7243,5.719,5.7227,5.7202,5.7145,5.722,5.7171,5.7178,5.7237,5.7314,5.7324,5.7333,5.7444,5.7469,5.7489,0,0,0,0,0,0,5.7308,5.7268,5.723,5.7307,5.7304,5.7272,5.7318,5.7271,5.7282,5.7271,5.7209,5.7205,5.7274,5.7261,5.7208,5.7334,5.7257,5.7269,5.7339,5.7362,5.738,5.7381,5.7108,0,0,0,0,0,5.7343,5.7373,5.7337,5.7409,5.7409,5.7364,5.7377,5.7339,5.7333,5.7331,5.731,5.7306,5.7328,5.7344,5.7363,5.7451,5.7445,5.7496,5.7514,5.7529,5.754,5.7585,5.7607,5.7371,5.7371,5.7371,0,0,5.7415,5.7398,5.742,5.7432,5.7425,5.7457,5.7364,5.7402,5.7426,5.7337,5.7391,5.7376,5.7368,5.7442,5.7473,5.7433,5.7604,5.7542,5.7554,5.7556,5.7598,5.762,5.764,5.7378,5.7376,5.7375,0,0,5.7564,5.7554,5.7612,5.7607,5.7597,5.7567,5.7582,5.7558,5.7544,5.7598,5.7532,5.7559,5.7599,5.7596,5.76,5.7749,5.7697,5.7757,5.7852,5.7897,5.7916,5.7932,5.7984,5.8004,5.7768,5.7768,5.7768,0,5.7655,5.7702,5.7648,5.7691,5.7698,5.762,5.7678,5.7676,5.7673,5.768,5.7636,5.7684,5.7673,5.7745,5.7782,5.7788,5.7802,5.7758,5.7917,5.7933,5.7947,5.7997,5.8017,5.7775,5.7774,5.7774,5.7773,0,5.7814,5.7848,5.7896,5.7895,5.7908,5.7959,5.7913,5.7932,5.7894,5.7869,5.7925,5.7909,5.7923,5.7937,5.7901,5.8005,5.798,5.7928,5.7849,5.7978,5.8023,5.8042,5.7786,5.7783,5.7781,5.7779,0,0,5.8035,5.8005,5.8024,5.8022,5.8006,5.8031,5.8079,5.8092,5.811,5.8111,5.8149,5.8186,5.8137,5.8142,5.8104,5.8144,5.8262,5.8086,5.8085,5.8119,5.8375,5.8414,5.8437,5.8228,5.8232,5.8234,5.8376,0,5.8177,5.8256,5.821,5.8296,5.8326,5.8252,5.8293,5.8289,5.8267,5.829,5.8265,5.8292,5.8226,5.8228,5.8264,5.824,5.8313,5.8229,5.8263,5.8265,5.8266,5.8461,5.8502,5.8636,5.8393,5.8396,5.8399,0,5.8353,5.8362,5.8451,5.8429,5.844,5.8478,5.8487,5.851,5.8503,5.8484,5.849,5.8443,5.8488,5.8412,5.8473,5.8418,5.8429,5.8419,5.8423,5.8423,5.8339,5.8466,5.8678,5.8698,5.8426,5.8424,5.8422,0,5.8504,5.8539,5.8596,5.8597,5.8574,5.8602,5.8594,5.8583,5.8594,5.8603,5.8609,5.8623,5.863,5.8642,5.86,5.8548,5.8667,5.8587,5.8653,5.8654,5.868,5.8679,5.8896,5.8689,5.8689,5.8689,5.8688,0,5.8667,5.8724,5.8664,5.8699,5.8761,5.8708,5.877,5.8754,5.8745,5.8776,5.8714,5.8745,5.8687,5.8712,5.868,5.8736,5.874,5.8726,5.8716,5.8731,5.8733,5.8736,5.8726,5.8694,5.8693,5.8692,5.8691,0,5.8846,5.8808,5.8865,5.8839,5.8834,5.8881,5.8858,5.8889,5.8864,5.8904,5.891,5.8871,5.8897,5.8856,5.8878,5.8856,5.8933,5.891,5.8936,5.8928,5.8996,5.899,5.9222,5.925,5.9027,5.9029,5.9031,0,5.8951,5.8993,5.8972,5.8988,5.8983,5.901,5.9021,5.8971,5.8986,5.8981,5.9014,5.9035,5.9049,5.9094,5.9067,5.9084,5.906,5.914,5.9062,5.9075,5.906,5.9058,5.9061,5.9156,5.9159,5.9161,5.9163,0,5.9142,5.9122,5.914,5.9153,5.9168,5.9175,5.9178,5.9195,5.9142,5.9162,5.9188,5.9199,5.9221,5.9243,5.9253,5.9244,5.9195,5.9188,5.9204,5.9218,5.9231,5.9224,5.8978,5.9182,5.918,5.9179,5.9178,5.9177,5.9287,5.9321,5.9311,5.9334,5.9331,5.9335,5.9364,5.9342,5.9363,5.9377,5.9346,5.938,5.9373,5.9381,5.9378,5.9404,5.9368,5.9392,5.9397,5.9403,5.9414,5.9228,5.9405,5.9405,5.9404,5.9404,5.9403,0,5.9474,5.9464,5.9486,5.9492,5.951,5.9463,5.9464,5.9482,5.9513,5.951,5.9525,5.9556,5.9577,5.9552,5.9569,5.9594,5.9572,5.96,5.9597,5.9596,5.9445,5.9429,5.9618,5.9618,5.9618,5.9617,5.9617,5.9617,5.9573,5.9628,5.9607,5.966,5.965,5.9682,5.9687,5.9691,5.9688,5.9725,5.9742,5.9726,5.9714,5.973,5.9747,5.9739,5.9748,5.9784,5.9769,5.9628,5.9607,5.9586,5.9571,5.9787,5.9787,5.9917,5.9919,5.9919]}]]